Location: Bats
(43.6587°N, 0.4584°W)
Time: 15:31:32
(UTC+00:00)

CARTOSAT-1 - Pass Details

Date: 12 January 2026
Orbit: 594 x 598 km, 97.5° (Epoch: 18 February)

Event Time Altitude Azimuth Distance (km) Brightness Sun altitude
Rises 18:28:29 0° 154° (SSE) 2,830 6.8 -17.9°
Reaches altitude 10° 18:30:40 10° 150° (SSE) 1,933 5.9 -18.3°
Maximum altitude 18:34:45 53° 73° (ENE) 737 3.5 -19.0°
Drops below altitude 10° 18:38:52 10° 357° (N) 1,947 6.0 -19.7°
Sets 18:41:05 0° 353° (N) 2,854 6.9 -20.1°
